Gunnison, CO

3:31 AM MST on December 16, 2019 (GMT -0700)
Gunnison County

Weather History for KGUC - September, 2019

Change the Weather History Date:

Saturday, September 14, 2019

  Actual Average Record
Temperature  
Mean Temperature 54 °F -  
Max Temperature 77 °F 66 °F 82 °F (2000)
Min Temperature 30 °F 34 °F 24 °F (2003)
Degree Days  
Heating Degree Days 12    
Growing Degree Days 4 (Base 50)    
Moisture  
Dew Point 23 °F    
Average Humidity 39    
Maximum Humidity 75    
Minimum Humidity 10    
Precipitation  
Precipitation 0.00 in - - ()
Sea Level Pressure  
Sea Level Pressure 30.29 in    
Wind  
Wind Speed 2 mph ()    
Max Wind Speed 10 mph    
Max Gust Speed 50 mph    
Visibility 9.7 miles    
Events      
Averages and records for this station are not official NWS values.
T = Trace of Precipitation, MM = Missing Value Source: Averaged Metar Reports

Daily Weather History Graph

Daily Weather History Graph

Search for Another Location

Airport or City:

Astronomy

Sep. 14, 2019 Rise Set
Actual Time 6:48 AM MDT 7:17 PM MDT
Civil Twilight 6:21 AM MDT 7:44 PM MDT
Nautical Twilight 5:50 AM MDT 8:15 PM MDT
Astronomical Twilight 5:18 AM MDT 8:47 PM MDT
Moon 7:59 PM MDT (9/14) 7:05 AM MDT (9/14)
Length of Visible Light 13h 22m
Length of Day
12h 29m
Full, 100% of the Moon is Illuminated
Sep 14
Full
Sep 21
Last Quarter
Sep 28
New
Oct 5
First Quarter
Oct 13
Full

Hourly Weather History & Observations

Time (MDT) Temp. Windchill Dew Point Humidity Pressure Visibility Wind Dir Wind Speed Gust Speed Precip Events Conditions
12:56 AM 41.0 °F 39.0 °F 26.1 °F 55% 30.32 in 10.0 mi NE 3.5 mph - N/A   Clear
1:56 AM 37.9 °F - 27.0 °F 65% 30.32 in 10.0 mi Calm Calm - N/A   Clear
2:56 AM 34.0 °F - 25.0 °F 70% 30.31 in 10.0 mi Calm Calm - N/A   Clear
3:56 AM 32.0 °F - 23.0 °F 69% 30.33 in 10.0 mi Calm Calm - N/A   Clear
4:56 AM 30.0 °F - 21.9 °F 72% 30.34 in 10.0 mi Calm Calm - N/A   Clear
5:56 AM 30.9 °F - 21.9 °F 69% 30.36 in 10.0 mi Calm Calm - N/A   Clear
6:56 AM 30.0 °F - 23.0 °F 75% 30.40 in 10.0 mi Calm Calm - N/A   Clear
7:56 AM 34.0 °F 31.0 °F 19.9 °F 56% 30.45 in 10.0 mi ENE 3.5 mph - N/A   Partly Cloudy
8:56 AM 41.0 °F - 19.9 °F 43% 30.42 in 6.0 mi Calm Calm - N/A   Haze
9:56 AM 50.0 °F - 21.0 °F 32% 30.40 in 9.0 mi Calm Calm - N/A   Clear
10:56 AM 55.9 °F - 21.9 °F 27% 30.37 in 10.0 mi Calm Calm - N/A   Clear
11:56 AM 62.1 °F - 23.0 °F 22% 30.33 in 10.0 mi NW 4.6 mph - N/A   Clear
12:56 PM 68.0 °F - 23.0 °F 18% 30.28 in 10.0 mi Calm Calm - N/A   Clear
1:56 PM 72.0 °F - 23.0 °F 16% 30.25 in 9.0 mi Calm Calm - N/A   Clear
2:56 PM 75.9 °F - 21.9 °F 13% 30.20 in 9.0 mi WSW 8.1 mph - N/A   Clear
3:56 PM 77.0 °F - 18.0 °F 11% 30.17 in 10.0 mi SSW 10.4 mph 17.3 mph N/A   Clear
4:56 PM 77.0 °F - 17.1 °F 10% 30.16 in 10.0 mi Variable 6.9 mph - N/A   Clear
5:56 PM 75.9 °F - 21.0 °F 13% 30.17 in 10.0 mi North 3.5 mph - N/A   Clear
6:56 PM 71.1 °F - 28.0 °F 20% 30.21 in 10.0 mi WNW 3.5 mph - N/A   Clear
7:56 PM 64.0 °F - 25.0 °F 23% 30.24 in 10.0 mi NNE 4.6 mph - N/A   Clear
8:56 PM 57.9 °F - 25.0 °F 28% 30.25 in 10.0 mi Variable 5.8 mph 49.5 mph N/A   Clear
9:56 PM 52.0 °F - 25.0 °F 35% 30.26 in 10.0 mi Calm Calm - N/A   Clear
10:56 PM 51.1 °F - 28.0 °F 41% 30.24 in 10.0 mi NW 3.5 mph - N/A   Clear
11:56 PM 46.9 °F - 30.0 °F 52% 30.24 in 10.0 mi Calm Calm - N/A   Clear